| time (UTC) | temp C | wind direction | speed KPH | gust KPH | rain 1hr cm | rain 24hr cm | rain mn cm | humidity % | barometer mb |
| 20260504020003 | 11 | 288 | 32.2 | 41.8 | 0.00 | 1.32 | 1.32 | 61 | 1041.0 |
| 20260504014503 | 12 | 197 | 33.8 | 49.9 | 0.00 | 1.32 | 1.32 | 61 | 1041.1 |
| 20260504013003 | 12 | 186 | 22.5 | 37.0 | 0.00 | 1.32 | 1.32 | 53 | 1041.0 |
| 20260504011503 | 13 | 276 | 16.1 | 35.4 | 0.00 | 1.32 | 1.32 | 49 | 1040.9 |
| 20260504010003 | 13 | 240 | 30.6 | 48.3 | 0.00 | 1.32 | 1.32 | 49 | 1040.5 |
| 20260504004503 | 14 | 232 | 30.6 | 43.5 | 0.00 | 1.32 | 1.32 | 49 | 1040.4 |
| 20260504003003 | 14 | 184 | 27.4 | 53.1 | 0.00 | 1.32 | 1.32 | 43 | 1040.1 |
| 20260504001524 | 15 | 150 | 30.6 | 51.5 | 0.00 | 1.32 | 1.32 | 45 | 1040.0 |
| 20260504000004 | 16 | 162 | 20.9 | 32.2 | 0.00 | 1.32 | 1.32 | 40 | 1039.8 |
| 20260503234504 | 16 | 134 | 24.1 | 46.7 | 0.20 | 1.32 | 1.32 | 35 | 1039.3 |
| 20260503233004 | 16 | 158 | 16.1 | 32.2 | 0.46 | 1.32 | 1.32 | 33 | 1039.1 |
| 20260503231526 | 17 | 262 | 14.5 | 40.2 | 0.56 | 1.32 | 1.32 | 36 | 1038.9 |
| 20260503230006 | 18 | 256 | 45.1 | 59.5 | 0.69 | 1.32 | 1.32 | 40 | 1038.4 |
| 20260503224504 | 18 | 172 | 46.7 | 59.5 | 0.66 | 1.12 | 1.12 | 41 | 1038.3 |
| 20260503223026 | 18 | 197 | 24.1 | 51.5 | 0.64 | 0.86 | 0.89 | 34 | 1037.9 |
| 20260503221504 | 18 | 249 | 22.5 | 33.8 | 0.66 | 0.76 | 0.76 | 31 | 1037.2 |
| 20260503220004 | 20 | 246 | 37.0 | 62.8 | 0.64 | 0.64 | 0.64 | 40 | 1037.3 |
| 20260503214504 | 19 | 212 | 40.2 | 64.4 | 0.46 | 0.56 | 0.46 | 31 | 1036.1 |
| 20260503213004 | 20 | 235 | 33.8 | 56.3 | 0.23 | 0.41 | 0.23 | 34 | 1036.1 |
| 20260503211505 | 20 | 178 | 45.1 | 66.0 | 0.10 | 0.46 | 0.10 | 31 | 1035.3 |
| 20260503210005 | 20 | 156 | 29.0 | 48.3 | 0.00 | 0.48 | 0.00 | 32 | 1035.1 |
| 20260503204504 | 18 | 174 | 22.5 | 41.8 | 0.00 | 0.64 | 0.00 | 23 | 1034.1 |
| 20260503203004 | 20 | 133 | 33.8 | 57.9 | 0.00 | 0.71 | 0.00 | 29 | 1034.0 |
| 20260503201504 | 19 | 162 | 17.7 | 38.6 | 0.00 | 0.97 | 0.00 | 27 | 1033.4 |
| 20260503200004 | 19 | 123 | 32.2 | 51.5 | 0.00 | 1.02 | 0.00 | 27 | 1032.6 |
| 20260503194504 | 18 | 220 | 16.1 | 41.8 | 0.00 | 1.02 | 0.00 | 22 | 1032.1 |
| 20260503193004 | 19 | 245 | 32.2 | 54.7 | 0.00 | 1.02 | 0.00 | 31 | 1031.7 |
| 20260503191504 | 19 | 248 | 37.0 | 57.9 | 0.00 | 1.02 | 0.00 | 34 | 1031.3 |
| 20260503190025 | 19 | 231 | 46.7 | 67.6 | 0.00 | 1.02 | 0.00 | 35 | 1030.7 |
| 20260503184504 | 18 | 231 | 38.6 | 61.2 | 0.00 | 1.02 | 0.00 | 33 | 1030.1 |
| 20260503183004 | 18 | 153 | 41.8 | 64.4 | 0.00 | 1.02 | 0.00 | 36 | 1029.7 |
| 20260503181505 | 18 | 132 | 17.7 | 48.3 | 0.00 | 1.02 | 0.00 | 35 | 1029.3 |
| 20260503180004 | 17 | 66 | 20.9 | 43.5 | 0.00 | 1.02 | 0.00 | 37 | 1028.9 |
| 20260503174504 | 16 | 116 | 6.4 | 20.9 | 0.00 | 1.02 | 0.00 | 29 | 1028.0 |
| 20260503173004 | 17 | 224 | 33.8 | 57.9 | 0.00 | 1.02 | 0.00 | 40 | 1027.6 |
| 20260503171524 | 16 | 236 | 24.1 | 41.8 | 0.00 | 1.02 | 0.00 | 39 | 1027.2 |
| 20260503030004 | 8 | 200 | 11.3 | 16.1 | 0.00 | 1.02 | 1.02 | 61 | 1018.8 |
| 20260503024503 | 9 | 218 | 14.5 | 20.9 | 0.00 | 1.02 | 1.02 | 62 | 1018.5 |
| 20260503023003 | 10 | 225 | 19.3 | 29.0 | 0.00 | 1.02 | 1.02 | 63 | 1018.3 |
| 20260503021503 | 10 | 143 | 25.7 | 37.0 | 0.00 | 1.02 | 1.02 | 58 | 1017.4 |